,,Stat6,,Stat2,,Stat8,,Stat9,,Stat10,,Wind1,,Wind1,
time,status,PA1M_AVG,status,PR1M_SUM,status,RH1M_AVG,status,SR1M_AVG,status,TA1M_AVG,status,W1dAve1m,status,W1sAve1m,
2004-02-01, 00:00:01,VALID,916.634,VALID,0,VALID,99.587,VALID,0,VALID,19.809,VALID,152,VALID,0.433239,
2004-02-01, 00:01:01,VALID,916.622,VALID,0,VALID,99.5857,VALID,0.0169808,VALID,19.8061,VALID,150,VALID,0.664621,
2004-02-01, 00:02:01,VALID,916.598,VALID,0,VALID,99.6213,VALID,0.0169808,VALID,19.7991,VALID,141,VALID,0.502232,
2004-02-01, 00:03:01,VALID,916.589,VALID,0,VALID,99.6836,VALID,0,VALID,19.8023,VALID,168,VALID,0.587754,
2004-02-01, 00:04:01,VALID,916.578,VALID,0,VALID,99.6989,VALID,0,VALID,19.7993,VALID,170,VALID,0.427284,
2004-02-01, 00:05:00,VALID,916.573,VALID,0,VALID,99.7192,VALID,0.0339617,VALID,19.8061,VALID,170,VALID,0.390443,
2004-02-01, 00:06:01,VALID,916.556,VALID,0,VALID,99.7103,VALID,0.0169808,VALID,19.7996,VALID,144,VALID,0.539993,
2004-02-01, 00:07:01,VALID,916.553,VALID,0,VALID,99.7154,VALID,0.0169808,VALID,19.78,VALID,113,VALID,0.380394,
2004-02-01, 00:08:01,VALID,916.53,VALID,0,VALID,99.7587,VALID,0.0339617,VALID,19.7832,VALID,84,VALID,0.51048,
2004-02-01, 00:09:01,VALID,916.532,VALID,0,VALID,99.7815,VALID,0,VALID,19.7897,VALID,87,VALID,0.570668,
2004-02-01, 00:10:01,VALID,916.516,VALID,0,VALID,99.7828,VALID,0,VALID,19.777,VALID,134,VALID,0.72526,
2004-02-01, 00:11:01,VALID,916.51,VALID,0,VALID,99.8133,VALID,0.0169808,VALID,19.7867,VALID,143,VALID,0.760476,
2004-02-01, 00:12:01,VALID,916.491,VALID,0,VALID,99.8197,VALID,0.0169808,VALID,19.78,VALID,138,VALID,0.567769,
2004-02-01, 00:13:01,VALID,916.47,VALID,0,VALID,99.8515,VALID,-0.0169808,VALID,19.7805,VALID,151,VALID,0.630035,
2004-02-01, 00:14:01,VALID,916.457,VALID,0,VALID,99.8502,VALID,0,VALID,19.7872,VALID,157,VALID,0.679688,
2004-02-01, 00:15:01,VALID,916.455,VALID,0,VALID,99.8578,VALID,0,VALID,19.7638,VALID,138,VALID,0.72093,
2004-02-01, 00:16:01,VALID,916.45,VALID,0,VALID,99.8616,VALID,0.0169808,VALID,19.7638,VALID,121,VALID,0.751243,
2004-02-01, 00:17:01,VALID,916.457,VALID,0,VALID,99.8438,VALID,0,VALID,19.7579,VALID,109,VALID,0.898047,
2004-02-01, 00:18:01,VALID,916.451,VALID,0,VALID,99.8426,VALID,0,VALID,19.7544,VALID,121,VALID,1.28086,
2004-02-01, 00:19:01,VALID,916.439,VALID,0,VALID,99.8655,VALID,0.0169808,VALID,19.7509,VALID,123,VALID,0.806076,
2004-02-01, 00:20:01,VALID,916.414,VALID,0,VALID,99.8807,VALID,-0.0169808,VALID,19.7606,VALID,120,VALID,0.866824,
2004-02-01, 00:21:01,VALID,916.38,VALID,0,VALID,99.8718,VALID,0,VALID,19.774,VALID,106,VALID,0.758557,
2004-02-01, 00:22:01,VALID,916.344,VALID,0,VALID,99.8795,VALID,0.0169808,VALID,19.7606,VALID,124,VALID,0.751002,
2004-02-01, 00:23:01,VALID,916.327,VALID,0,VALID,99.8718,VALID,0,VALID,19.7772,VALID,95,VALID,1.01816,
2004-02-01, 00:24:01,VALID,916.307,VALID,0,VALID,99.8629,VALID,-0.0169808,VALID,19.774,VALID,108,VALID,1.18906,
2004-02-01, 00:25:01,VALID,916.295,VALID,0,VALID,99.8578,VALID,-0.0169808,VALID,19.7603,VALID,136,VALID,1.15234,
2004-02-01, 00:26:01,VALID,916.284,VALID,0,VALID,99.8566,VALID,-0.0339617,VALID,19.7837,VALID,136,VALID,1.18398,
2004-02-01, 00:27:01,VALID,916.298,VALID,0,VALID,99.8413,VALID,0,VALID,19.7733,VALID,123,VALID,1.63706,
2004-02-01, 00:28:00,VALID,916.307,VALID,0,VALID,99.8286,VALID,-0.0169808,VALID,19.777,VALID,104,VALID,0.820694,
2004-02-01, 00:29:00,VALID,916.327,VALID,0,VALID,99.8044,VALID,-0.0169808,VALID,19.78,VALID,111,VALID,0.874814,
2004-02-01, 00:30:00,VALID,916.357,VALID,0,VALID,99.7866,VALID,0,VALID,19.7743,VALID,112,VALID,1.3005,
2004-02-01, 00:31:00,VALID,916.367,VALID,0,VALID,99.7968,VALID,0,VALID,19.77,VALID,135,VALID,1.52202,
2004-02-01, 00:32:00,VALID,916.368,VALID,0,VALID,99.7866,VALID,0,VALID,19.7834,VALID,137,VALID,1.64653,
2004-02-01, 00:33:00,VALID,916.381,VALID,0,VALID,99.7447,VALID,0,VALID,19.8195,VALID,131,VALID,1.66352,
2004-02-01, 00:34:00,VALID,916.406,VALID,0,VALID,99.6493,VALID,-0.0509425,VALID,19.8257,VALID,128,VALID,1.74149,
2004-02-01, 00:35:00,VALID,916.395,VALID,0,VALID,99.4395,VALID,-0.0169808,VALID,19.8287,VALID,119,VALID,2.26484,
2004-02-01, 00:36:00,VALID,916.395,VALID,0,VALID,99.0961,VALID,0,VALID,19.8781,VALID,115,VALID,2.52028,
2004-02-01, 00:37:00,VALID,916.389,VALID,0,VALID,98.4375,VALID,-0.0169808,VALID,19.9325,VALID,125,VALID,2.65226,
2004-02-01, 00:38:00,VALID,916.381,VALID,0,VALID,97.6808,VALID,-0.0169808,VALID,20.0329,VALID,121,VALID,1.7689,
2004-02-01, 00:39:00,VALID,916.364,VALID,0,VALID,97.1048,VALID,-0.0169808,VALID,20.0905,VALID,84,VALID,1.41629,
2004-02-01, 00:40:00,VALID,916.318,VALID,0,VALID,96.8912,VALID,0,VALID,20.1193,VALID,44,VALID,1.55832,
2004-02-01, 00:41:00,VALID,916.286,VALID,0,VALID,96.7678,VALID,0,VALID,20.1387,VALID,74,VALID,1.65163,
2004-02-01, 00:42:00,VALID,916.28,VALID,0,VALID,96.5428,VALID,-0.0169808,VALID,20.1389,VALID,88,VALID,2.05278,
2004-02-01, 00:43:00,VALID,916.234,VALID,0,VALID,96.2567,VALID,0,VALID,20.1683,VALID,81,VALID,1.62853,
2004-02-01, 00:44:00,VALID,916.219,VALID,0,VALID,96.2516,VALID,0,VALID,20.171,VALID,86,VALID,1.58984,
2004-02-01, 00:45:00,VALID,916.206,VALID,0,VALID,96.0888,VALID,-0.0169808,VALID,20.1683,VALID,96,VALID,1.63512,
2004-02-01, 00:46:00,VALID,916.195,VALID,0,VALID,96.0227,VALID,-0.0169808,VALID,20.165,VALID,94,VALID,1.2807,
2004-02-01, 00:47:00,VALID,916.193,VALID,0,VALID,95.9655,VALID,0,VALID,20.1812,VALID,69,VALID,1.2061,
2004-02-01, 00:48:00,VALID,916.188,VALID,0,VALID,95.9616,VALID,0,VALID,20.168,VALID,81,VALID,1.41063,
2004-02-01, 00:49:00,VALID,916.194,VALID,0,VALID,95.9909,VALID,0,VALID,20.1616,VALID,80,VALID,1.19186,
2004-02-01, 00:50:00,VALID,916.21,VALID,0,VALID,96.0239,VALID,0,VALID,20.1618,VALID,89,VALID,1.74238,
2004-02-01, 00:51:00,VALID,916.239,VALID,0,VALID,96.1142,VALID,0,VALID,20.1484,VALID,78,VALID,1.34561,
2004-02-01, 00:52:00,VALID,916.246,VALID,0,VALID,96.2134,VALID,-0.0169808,VALID,20.129,VALID,60,VALID,0.724702,
2004-02-01, 00:53:00,VALID,916.238,VALID,0,VALID,96.3749,VALID,0,VALID,20.1032,VALID,68,VALID,0.737393,
2004-02-01, 00:54:00,VALID,916.243,VALID,0,VALID,96.4983,VALID,0,VALID,20.0803,VALID,74,VALID,1.15811,
2004-02-01, 00:55:00,VALID,916.255,VALID,0,VALID,96.6636,VALID,-0.0339617,VALID,20.0711,VALID,57,VALID,1.29745,
2004-02-01, 00:56:00,VALID,916.266,VALID,0,VALID,96.6814,VALID,0.0169808,VALID,20.0644,VALID,82,VALID,0.843178,
2004-02-01, 00:57:00,VALID,916.262,VALID,0,VALID,96.82,VALID,0,VALID,20.0421,VALID,101,VALID,1.0767,
2004-02-01, 00:58:00,VALID,916.286,VALID,0,VALID,96.9764,VALID,-0.0169808,VALID,20.0262,VALID,82,VALID,1.04149,
2004-02-01, 00:59:00,VALID,916.284,VALID,0,VALID,97.1328,VALID,-0.0169808,VALID,19.9782,VALID,66,VALID,1.03587,
2004-02-01, 01:00:00,VALID,916.282,VALID,0,VALID,97.3896,VALID,0,VALID,19.9454,VALID,59,VALID,1.3758,
2004-02-01, 01:01:00,VALID,916.277,VALID,0,VALID,97.5448,VALID,0,VALID,19.926,VALID,54,VALID,1.25799,
2004-02-01, 01:02:00,VALID,916.274,VALID,0,VALID,97.6516,VALID,-0.0169808,VALID,19.9064,VALID,73,VALID,1.21801,
2004-02-01, 01:03:00,VALID,916.252,VALID,0,VALID,97.7482,VALID,-0.0169808,VALID,19.8836,VALID,71,VALID,0.969551,
2004-02-01, 01:04:00,VALID,916.244,VALID,0,VALID,97.8525,VALID,-0.0169808,VALID,19.8478,VALID,77,VALID,0.951029,
2004-02-01, 01:05:00,VALID,916.237,VALID,0,VALID,97.911,VALID,-0.0169808,VALID,19.8356,VALID,76,VALID,0.747954,
2004-02-01, 01:06:00,VALID,916.224,VALID,0,VALID,97.9987,VALID,-0.0169808,VALID,19.8162,VALID,45,VALID,0.701601,
2004-02-01, 01:07:00,VALID,916.24,VALID,0,VALID,98.089,VALID,0,VALID,19.7929,VALID,53,VALID,0.613991,
2004-02-01, 01:08:00,VALID,916.252,VALID,0,VALID,98.1297,VALID,-0.0169808,VALID,19.7775,VALID,67,VALID,0.647372,
2004-02-01, 01:09:00,VALID,916.254,VALID,0,VALID,98.1679,VALID,-0.0169808,VALID,19.7608,VALID,70,VALID,0.710088,
2004-02-01, 01:10:00,VALID,916.255,VALID,0,VALID,98.1857,VALID,0,VALID,19.7549,VALID,87,VALID,0.754972,
2004-02-01, 01:11:00,VALID,916.247,VALID,0,VALID,98.178,VALID,0,VALID,19.7484,VALID,89,VALID,0.66582,
2004-02-01, 01:12:00,VALID,916.232,VALID,0,VALID,98.1513,VALID,-0.0339617,VALID,19.7417,VALID,73,VALID,0.811166,
2004-02-01, 01:13:00,VALID,916.239,VALID,0,VALID,98.0916,VALID,0,VALID,19.7484,VALID,64,VALID,0.920277,
2004-02-01, 01:14:00,VALID,916.219,VALID,0,VALID,98.0394,VALID,0,VALID,19.7447,VALID,57,VALID,0.87779,
2004-02-01, 01:15:00,VALID,916.208,VALID,0,VALID,97.925,VALID,0.0169808,VALID,19.7315,VALID,43,VALID,0.723958,
2004-02-01, 01:16:00,VALID,916.189,VALID,0,VALID,97.8894,VALID,0,VALID,19.7263,VALID,44,VALID,0.521984,
2004-02-01, 01:17:00,VALID,916.159,VALID,0,VALID,97.8856,VALID,0,VALID,19.6933,VALID,44,VALID,0.365663,
2004-02-01, 01:18:00,VALID,916.134,VALID,0,VALID,97.9034,VALID,0.0169808,VALID,19.6672,VALID,43,VALID,0.582386,
2004-02-01, 01:19:00,VALID,916.098,VALID,0,VALID,97.8907,VALID,0.0169808,VALID,19.652,VALID,38,VALID,0.765625,
2004-02-01, 01:20:00,VALID,916.083,VALID,0,VALID,98.0496,VALID,0.0339617,VALID,19.6292,VALID,23,VALID,0.912997,
2004-02-01, 01:21:00,VALID,916.069,VALID,0,VALID,98.1602,VALID,0,VALID,19.6255,VALID,25,VALID,0.795117,
2004-02-01, 01:22:00,VALID,916.067,VALID,0,VALID,98.089,VALID,0,VALID,19.622,VALID,28,VALID,0.605469,
2004-02-01, 01:23:00,VALID,916.078,VALID,0,VALID,98.1475,VALID,0.0169808,VALID,19.6185,VALID,28,VALID,0.314862,
2004-02-01, 01:24:00,VALID,916.071,VALID,0,VALID,98.0789,VALID,0,VALID,19.6088,VALID,28,VALID,0.28404,
2004-02-01, 01:25:00,VALID,916.061,VALID,0,VALID,98.0916,VALID,0.0169808,VALID,19.6029,VALID,27,VALID,0.407099,
2004-02-01, 01:26:00,VALID,916.065,VALID,0,VALID,98.1463,VALID,0.0169808,VALID,19.5964,VALID,4,VALID,0.524325,
2004-02-01, 01:27:00,VALID,916.065,VALID,0,VALID,98.2416,VALID,0.0169808,VALID,19.5996,VALID,305,VALID,0.579368,
2004-02-01, 01:28:00,VALID,916.074,VALID,0,VALID,98.3891,VALID,0,VALID,19.6222,VALID,272,VALID,0.601935,
2004-02-01, 01:29:00,VALID,916.067,VALID,0,VALID,98.515,VALID,0,VALID,19.6153,VALID,272,VALID,0.357195,
2004-02-01, 01:30:00,VALID,916.055,VALID,0,VALID,98.6346,VALID,0.0169808,VALID,19.6123,VALID,272,VALID,0.0398247,
2004-02-01, 01:31:00,VALID,916.043,VALID,0,VALID,98.7058,VALID,0.0339617,VALID,19.6195,VALID,272,VALID,0.0267078,
2004-02-01, 01:32:00,VALID,916.034,VALID,0,VALID,98.7719,VALID,0.0169808,VALID,19.5959,VALID,272,VALID,0.000381098,
2004-02-01, 01:33:00,VALID,916.028,VALID,0,VALID,98.8927,VALID,0.0339617,VALID,19.616,VALID,270,VALID,0.128811,
2004-02-01, 01:34:00,VALID,916.011,VALID,0,VALID,99.0415,VALID,0.0169808,VALID,19.6185,VALID,253,VALID,0.376999,
2004-02-01, 01:35:00,VALID,916.002,VALID,0,VALID,99.0733,VALID,0.0169808,VALID,19.6222,VALID,253,VALID,0.183503,
2004-02-01, 01:36:00,VALID,915.992,VALID,0,VALID,99.1826,VALID,0.0169808,VALID,19.6155,VALID,255,VALID,0.367188,
2004-02-01, 01:37:00,VALID,915.983,VALID,0,VALID,99.2831,VALID,0.0679233,VALID,19.6091,VALID,256,VALID,0.0397892,
2004-02-01, 01:38:00,VALID,915.976,VALID,0,VALID,99.3174,VALID,0.0169808,VALID,19.6158,VALID,256,VALID,0.181818,
2004-02-01, 01:39:00,VALID,915.973,VALID,0,VALID,99.3721,VALID,0.0339617,VALID,19.5962,VALID,256,VALID,0.280887,
2004-02-01, 01:40:00,VALID,915.964,VALID,0,VALID,99.4166,VALID,0,VALID,19.6063,VALID,256,VALID,0.167492,
2004-02-01, 01:41:00,VALID,915.964,VALID,0,VALID,99.4636,VALID,0.0169808,VALID,19.5959,VALID,256,VALID,0,
2004-02-01, 01:42:00,VALID,915.963,VALID,0,VALID,99.4764,VALID,0.0339617,VALID,19.5934,VALID,256,VALID,0,
2004-02-01, 01:43:00,VALID,915.97,VALID,0,VALID,99.5145,VALID,0,VALID,19.587,VALID,256,VALID,0,
2004-02-01, 01:44:00,VALID,915.942,VALID,0,VALID,99.5018,VALID,-0.118866,VALID,19.5783,VALID,256,VALID,0,
2004-02-01, 01:45:00,VALID,915.932,VALID,0,VALID,99.5132,VALID,-0.0679233,VALID,19.5725,VALID,256,VALID,0.0117188,
2004-02-01, 01:46:00,VALID,915.904,VALID,0,VALID,99.5361,VALID,-0.0679233,VALID,19.5688,VALID,256,VALID,0.0675872,
2004-02-01, 01:47:00,VALID,915.861,VALID,0,VALID,99.5005,VALID,-0.0849042,VALID,19.5594,VALID,257,VALID,0.235973,
2004-02-01, 01:48:00,VALID,915.818,VALID,0,VALID,99.47,VALID,-0.0679233,VALID,19.5234,VALID,268,VALID,0.151367,
2004-02-01, 01:49:00,VALID,915.787,VALID,0,VALID,99.4738,VALID,-0.101885,VALID,19.5109,VALID,270,VALID,0,
2004-02-01, 01:50:00,VALID,915.76,VALID,0,VALID,99.4992,VALID,-0.0849042,VALID,19.501,VALID,270,VALID,0.00292969,
2004-02-01, 01:51:00,VALID,915.741,VALID,0,VALID,99.4598,VALID,-0.0849042,VALID,19.4849,VALID,10,VALID,0.594866,
2004-02-01, 01:52:00,VALID,915.705,VALID,0,VALID,99.3823,VALID,-0.101885,VALID,19.4719,VALID,71,VALID,0.842478,
2004-02-01, 01:53:00,VALID,915.673,VALID,0,VALID,99.4001,VALID,-0.101885,VALID,19.4632,VALID,71,VALID,0.742708,
2004-02-01, 01:54:00,VALID,915.642,VALID,0,VALID,99.531,VALID,-0.101885,VALID,19.4692,VALID,71,VALID,0.587391,
2004-02-01, 01:55:00,VALID,915.628,VALID,0,VALID,99.5158,VALID,-0.0849042,VALID,19.4851,VALID,71,VALID,0.669876,
2004-02-01, 01:56:00,VALID,915.618,VALID,0,VALID,99.311,VALID,-0.101885,VALID,19.4719,VALID,71,VALID,0.598474,
2004-02-01, 01:57:00,VALID,915.619,VALID,0,VALID,99.2144,VALID,-0.101885,VALID,19.4595,VALID,71,VALID,0.664249,
2004-02-01, 01:58:00,VALID,915.595,VALID,0,VALID,99.2322,VALID,-0.0339617,VALID,19.4451,VALID,71,VALID,0.554688,
2004-02-01, 01:59:00,VALID,915.585,VALID,0,VALID,99.1406,VALID,0,VALID,19.4546,VALID,71,VALID,0.538154,
2004-02-01, 02:00:00,VALID,915.565,VALID,0,VALID,98.8723,VALID,0,VALID,19.419,VALID,70,VALID,0.563408,
2004-02-01, 02:01:00,VALID,915.539,VALID,0,VALID,98.7019,VALID,0,VALID,19.3741,VALID,53,VALID,0.775112,
2004-02-01, 02:02:00,VALID,915.537,VALID,0,VALID,98.5748,VALID,0.0169808,VALID,19.3125,VALID,35,VALID,1.07107,
2004-02-01, 02:03:00,VALID,915.528,VALID,0,VALID,98.6854,VALID,0,VALID,19.2678,VALID,32,VALID,1.22042,
2004-02-01, 02:04:00,VALID,915.511,VALID,0,VALID,98.9346,VALID,0,VALID,19.2519,VALID,38,VALID,1.11607,
2004-02-01, 02:05:00,VALID,915.49,VALID,0,VALID,99.1127,VALID,0,VALID,19.2419,VALID,43,VALID,0.93843,
2004-02-01, 02:06:00,VALID,915.473,VALID,0,VALID,99.1699,VALID,0.0169808,VALID,19.2256,VALID,51,VALID,0.633507,
2004-02-01, 02:07:00,VALID,915.467,VALID,0,VALID,99.3021,VALID,0,VALID,19.2027,VALID,75,VALID,0.84233,
2004-02-01, 02:08:00,VALID,915.471,VALID,0,VALID,99.4204,VALID,0,VALID,19.2161,VALID,89,VALID,0.947359,
2004-02-01, 02:09:00,VALID,915.476,VALID,0,VALID,99.4496,VALID,0,VALID,19.2,VALID,92,VALID,0.845703,
2004-02-01, 02:10:00,VALID,915.477,VALID,0,VALID,99.5094,VALID,0,VALID,19.1908,VALID,87,VALID,0.876999,
2004-02-01, 02:11:00,VALID,915.471,VALID,0,VALID,99.5043,VALID,0,VALID,19.1515,VALID,61,VALID,0.685404,
2004-02-01, 02:12:00,VALID,915.476,VALID,0,VALID,99.5488,VALID,0,VALID,19.1356,VALID,78,VALID,0.690163,
2004-02-01, 02:13:00,VALID,915.462,VALID,0,VALID,99.5348,VALID,-0.0169808,VALID,19.1001,VALID,106,VALID,0.485677,
2004-02-01, 02:14:00,VALID,915.464,VALID,0,VALID,99.6378,VALID,0,VALID,19.071,VALID,99,VALID,0.648256,
2004-02-01, 02:15:00,VALID,915.456,VALID,0,VALID,99.6874,VALID,-0.0339617,VALID,19.0648,VALID,91,VALID,0.507086,
2004-02-01, 02:16:00,VALID,915.451,VALID,0,VALID,99.7561,VALID,-0.0169808,VALID,19.0581,VALID,91,VALID,0.367188,
2004-02-01, 02:17:00,VALID,915.429,VALID,0,VALID,99.8121,VALID,0,VALID,19.0651,VALID,91,VALID,0.537348,
2004-02-01, 02:18:00,VALID,915.411,VALID,0,VALID,99.8502,VALID,-0.0339617,VALID,19.0579,VALID,91,VALID,0.428757,
2004-02-01, 02:19:00,VALID,915.387,VALID,0,VALID,99.8667,VALID,0,VALID,19.0718,VALID,91,VALID,0.507086,
2004-02-01, 02:20:00,VALID,915.357,VALID,0,VALID,99.8947,VALID,0,VALID,19.0581,VALID,91,VALID,0.343928,
2004-02-01, 02:21:00,VALID,915.33,VALID,0,VALID,99.9163,VALID,-0.0509425,VALID,19.0519,VALID,91,VALID,0.277158,
2004-02-01, 02:22:00,VALID,915.308,VALID,0,VALID,99.9507,VALID,-0.0339617,VALID,19.0487,VALID,91,VALID,0.247713,
2004-02-01, 02:23:00,VALID,915.283,VALID,0,VALID,99.9748,VALID,-0.0509425,VALID,19.0452,VALID,91,VALID,0.265625,
2004-02-01, 02:24:00,VALID,915.286,VALID,0,VALID,99.9837,VALID,0,VALID,19.042,VALID,91,VALID,0.304874,
2004-02-01, 02:25:00,VALID,915.288,VALID,0,VALID,99.9875,VALID,-0.0169808,VALID,19.0323,VALID,79,VALID,0.440387,
2004-02-01, 02:26:00,VALID,915.291,VALID,0,VALID,99.9908,VALID,-0.0339617,VALID,19.0196,VALID,77,VALID,0.286156,
2004-02-01, 02:27:00,VALID,915.296,VALID,0,VALID,99.9774,VALID,0,VALID,19.0035,VALID,77,VALID,0.116443,
2004-02-01, 02:28:00,VALID,915.299,VALID,0,VALID,99.999,VALID,-0.0509425,VALID,18.9938,VALID,77,VALID,0.124628,
2004-02-01, 02:29:00,VALID,915.306,VALID,0,VALID,100,VALID,-0.0339617,VALID,19.0005,VALID,77,VALID,0.310156,
2004-02-01, 02:30:00,VALID,915.314,VALID,0,VALID,100,VALID,-0.0339617,VALID,19.0162,VALID,77,VALID,0.545313,
2004-02-01, 02:31:00,VALID,915.33,VALID,0,VALID,100,VALID,0,VALID,19.0159,VALID,97,VALID,0.607922,
2004-02-01, 02:32:00,VALID,915.316,VALID,0,VALID,100,VALID,0,VALID,18.9901,VALID,113,VALID,0.47674,
2004-02-01, 02:33:00,VALID,915.317,VALID,0,VALID,100,VALID,-0.0169808,VALID,18.9806,VALID,113,VALID,0.363653,
2004-02-01, 02:34:00,VALID,915.312,VALID,0,VALID,100,VALID,0,VALID,18.9643,VALID,113,VALID,0.359184,
2004-02-01, 02:35:00,VALID,915.306,VALID,0,VALID,100,VALID,-0.0339617,VALID,18.9747,VALID,113,VALID,0.308008,
2004-02-01, 02:36:00,VALID,915.284,VALID,0,VALID,100,VALID,0,VALID,18.9744,VALID,113,VALID,0.211115,
2004-02-01, 02:37:00,VALID,915.283,VALID,0,VALID,100,VALID,-0.0169808,VALID,18.9772,VALID,113,VALID,0.0145089,
2004-02-01, 02:38:00,VALID,915.259,VALID,0,VALID,100,VALID,-0.0169808,VALID,18.9968,VALID,113,VALID,0,
2004-02-01, 02:39:00,VALID,915.247,VALID,0,VALID,100,VALID,-0.0509425,VALID,19.0231,VALID,113,VALID,0,
2004-02-01, 02:40:00,VALID,915.231,VALID,0,VALID,100,VALID,0,VALID,19.0162,VALID,113,VALID,0,
2004-02-01, 02:41:00,VALID,915.23,VALID,0,VALID,100,VALID,-0.0169808,VALID,19.0425,VALID,113,VALID,0.0498798,
2004-02-01, 02:42:00,VALID,915.215,VALID,0,VALID,100,VALID,0,VALID,19.0452,VALID,113,VALID,0.0479403,
2004-02-01, 02:43:00,VALID,915.215,VALID,0,VALID,100,VALID,0,VALID,19.0651,VALID,113,VALID,0.182292,
2004-02-01, 02:44:00,VALID,915.201,VALID,0,VALID,100,VALID,-0.0169808,VALID,19.0907,VALID,113,VALID,0,
2004-02-01, 02:45:00,VALID,915.179,VALID,0,VALID,100,VALID,-0.0169808,VALID,19.1165,VALID,113,VALID,0,
2004-02-01, 02:46:00,VALID,915.164,VALID,0,VALID,100,VALID,-0.0169808,VALID,19.0939,VALID,113,VALID,0,
2004-02-01, 02:47:00,VALID,915.147,VALID,0,VALID,100,VALID,0,VALID,19.0484,VALID,113,VALID,0.00688244,
2004-02-01, 02:48:00,VALID,915.134,VALID,0,VALID,100,VALID,-0.0169808,VALID,19.0902,VALID,145,VALID,0.388626,
2004-02-01, 02:49:00,VALID,915.118,VALID,0,VALID,100,VALID,0,VALID,19.1426,VALID,278,VALID,0.396621,
2004-02-01, 02:50:00,VALID,915.12,VALID,0,VALID,100,VALID,-0.0169808,VALID,19.1845,VALID,278,VALID,0.102983,
2004-02-01, 02:51:00,VALID,915.106,VALID,0,VALID,100,VALID,0,VALID,19.1937,VALID,278,VALID,0.0757631,
2004-02-01, 02:52:00,VALID,915.109,VALID,0,VALID,100,VALID,0,VALID,19.1838,VALID,278,VALID,0.00677083,
2004-02-01, 02:53:00,VALID,915.094,VALID,0,VALID,100,VALID,0,VALID,19.1912,VALID,258,VALID,0.494851,
2004-02-01, 02:54:00,VALID,915.102,VALID,0,VALID,100,VALID,0,VALID,19.1845,VALID,246,VALID,0.384448,
2004-02-01, 02:55:00,VALID,915.079,VALID,0,VALID,100,VALID,-0.0169808,VALID,19.1753,VALID,240,VALID,0.37128,
2004-02-01, 02:56:00,VALID,915.072,VALID,0,VALID,100,VALID,-0.0169808,VALID,19.1686,VALID,216,VALID,0.517624,
2004-02-01, 02:57:00,VALID,915.065,VALID,0,VALID,100,VALID,0,VALID,19.1617,VALID,219,VALID,0.592578,
2004-02-01, 02:58:00,VALID,915.068,VALID,0,VALID,100,VALID,-0.0339617,VALID,19.1622,VALID,208,VALID,0.631904,
2004-02-01, 02:59:00,VALID,915.059,VALID,0,VALID,100,VALID,-0.118866,VALID,19.1306,VALID,214,VALID,0.46582,
2004-02-01, 03:00:00,VALID,915.058,VALID,0,VALID,100,VALID,-0.135847,VALID,19.1145,VALID,207,VALID,0.551235,
2004-02-01, 03:01:00,VALID,915.049,VALID,0,VALID,100,VALID,-0.101885,VALID,19.1018,VALID,218,VALID,0.470567,
2004-02-01, 03:02:00,VALID,915.039,VALID,0,VALID,100,VALID,-0.118866,VALID,19.0792,VALID,217,VALID,0.713914,
2004-02-01, 03:03:00,VALID,915.028,VALID,0,VALID,100,VALID,-0.118866,VALID,19.0499,VALID,229,VALID,0.715402,
2004-02-01, 03:04:00,VALID,915.023,VALID,0,VALID,100,VALID,-0.152827,VALID,19.0563,VALID,249,VALID,0.830611,
2004-02-01, 03:05:00,VALID,915.04,VALID,0,VALID,100,VALID,-0.118866,VALID,19.0695,VALID,226,VALID,0.509411,
2004-02-01, 03:06:00,VALID,915.043,VALID,0,VALID,100,VALID,-0.135847,VALID,19.0665,VALID,226,VALID,0.323933,
2004-02-01, 03:07:00,VALID,915.035,VALID,0,VALID,100,VALID,-0.118866,VALID,19.0797,VALID,225,VALID,0.478561,
2004-02-01, 03:08:00,VALID,915.056,VALID,0,VALID,100,VALID,-0.118866,VALID,19.0792,VALID,226,VALID,0.270389,
2004-02-01, 03:09:00,VALID,915.057,VALID,0,VALID,100,VALID,-0.135847,VALID,19.0923,VALID,225,VALID,0.388263,
2004-02-01, 03:10:00,VALID,915.059,VALID,0,VALID,100,VALID,-0.169808,VALID,19.102,VALID,222,VALID,0.345982,
2004-02-01, 03:11:00,VALID,915.062,VALID,0,VALID,100,VALID,-0.101885,VALID,19.1115,VALID,221,VALID,0.19093,
2004-02-01, 03:12:00,VALID,915.075,VALID,0,VALID,100,VALID,-0.101885,VALID,19.1311,VALID,221,VALID,0.0788872,
2004-02-01, 03:13:00,VALID,915.09,VALID,0,VALID,100,VALID,-0.0679233,VALID,19.1299,VALID,221,VALID,0.0116279,
2004-02-01, 03:14:00,VALID,915.09,VALID,0,VALID,100,VALID,-0.0169808,VALID,19.1264,VALID,221,VALID,0.0138081,
2004-02-01, 03:15:00,VALID,915.099,VALID,0,VALID,100,VALID,0,VALID,19.1269,VALID,221,VALID,0,
2004-02-01, 03:16:00,VALID,915.122,VALID,0,VALID,100,VALID,0,VALID,19.1289,VALID,221,VALID,0,
2004-02-01, 03:17:00,VALID,915.146,VALID,0,VALID,100,VALID,0,VALID,19.1227,VALID,221,VALID,0.0747768,
2004-02-01, 03:18:00,VALID,915.164,VALID,0,VALID,100,VALID,-0.0509425,VALID,19.1195,VALID,221,VALID,0.320131,
2004-02-01, 03:19:00,VALID,915.169,VALID,0,VALID,100,VALID,-0.0339617,VALID,19.1195,VALID,221,VALID,0.463796,
2004-02-01, 03:20:00,VALID,915.17,VALID,0,VALID,100,VALID,-0.0169808,VALID,19.1262,VALID,221,VALID,0.296875,
2004-02-01, 03:21:00,VALID,915.183,VALID,0,VALID,100,VALID,0,VALID,19.1098,VALID,221,VALID,0.257068,
2004-02-01, 03:22:00,VALID,915.189,VALID,0,VALID,100,VALID,0.0169808,VALID,19.0969,VALID,221,VALID,0.228966,
2004-02-01, 03:23:00,VALID,915.187,VALID,0,VALID,100,VALID,0.0169808,VALID,19.0874,VALID,221,VALID,0.324389,
2004-02-01, 03:24:00,VALID,915.19,VALID,0,VALID,100,VALID,0.0169808,VALID,19.0577,VALID,221,VALID,0.0795139,
2004-02-01, 03:25:00,VALID,915.179,VALID,0,VALID,100,VALID,0,VALID,19.0584,VALID,221,VALID,0.292383,
2004-02-01, 03:26:00,VALID,915.168,VALID,0,VALID,100,VALID,-0.0169808,VALID,19.0487,VALID,233,VALID,0.472852,
2004-02-01, 03:27:00,VALID,915.172,VALID,0,VALID,100,VALID,0,VALID,19.0452,VALID,6,VALID,0.678267,
2004-02-01, 03:28:00,VALID,915.162,VALID,0,VALID,100,VALID,0,VALID,19,VALID,33,VALID,0.852734,
2004-02-01, 03:29:00,VALID,915.137,VALID,0,VALID,100,VALID,0,VALID,18.9811,VALID,33,VALID,0.891369,
2004-02-01, 03:30:00,VALID,915.126,VALID,0,VALID,100,VALID,0,VALID,18.9488,VALID,27,VALID,0.96782,
2004-02-01, 03:31:00,VALID,915.1,VALID,0,VALID,100,VALID,-0.0169808,VALID,18.9064,VALID,29,VALID,0.95348,
2004-02-01, 03:32:00,VALID,915.092,VALID,0,VALID,100,VALID,0,VALID,18.8999,VALID,31,VALID,0.983132,
2004-02-01, 03:33:00,VALID,915.073,VALID,0,VALID,100,VALID,0,VALID,18.8907,VALID,36,VALID,1.13608,
2004-02-01, 03:34:00,VALID,915.07,VALID,0,VALID,100,VALID,-0.0339617,VALID,18.8746,VALID,34,VALID,1.21456,
2004-02-01, 03:35:00,VALID,915.077,VALID,0,VALID,100,VALID,-0.0169808,VALID,18.8517,VALID,35,VALID,1.23057,
2004-02-01, 03:36:00,VALID,915.076,VALID,0,VALID,100,VALID,-0.0169808,VALID,18.8455,VALID,31,VALID,1.01042,
2004-02-01, 03:37:00,VALID,915.072,VALID,0,VALID,100,VALID,-0.0339617,VALID,18.8356,VALID,32,VALID,0.926711,
2004-02-01, 03:38:00,VALID,915.071,VALID,0,VALID,100,VALID,-0.0339617,VALID,18.8455,VALID,30,VALID,1.15781,
2004-02-01, 03:39:00,VALID,915.084,VALID,0,VALID,100,VALID,-0.0339617,VALID,18.8363,VALID,30,VALID,0.931021,
2004-02-01, 03:40:00,VALID,915.085,VALID,0,VALID,100,VALID,0,VALID,18.8165,VALID,32,VALID,0.865282,